Regional Weather Roundup
Issued by NWS State College, PA

Home | Current Version | Previous Version | Text Only | Print | Product List | Glossary On
Versions: 1 2 3 4 5 6 7 8 9 10 11 12 13 14 15 16 17 18 19 20 21 22 23 24 25 26 27 28 29 30 31 32 33 34 35 36 37 38 39 40 41 42 43 44 45 46 47 48 49 50
000
ASUS41 KCTP 231903
RWRCTP

REGIONAL WEATHER ROUNDUP
NATIONAL WEATHER SERVICE STATE COLLEGE PA
300 PM EDT SUN APR 23 2017

Note: "fair" indicates few or no clouds below 12,000 feet with no
significant weather and/or obstructions to visibility.

* = STATION THAT DOES NOT REPORT PRECIPITATION /E.G. RAIN...SNOW...ETC/
    THUNDER OR FOG.

PAZ002>004-007>009-013>016-020>023-029>032-232000-
WESTERN PENNSYLVANIA

CITY           SKY/WX    TMP DP  RH WIND       PRES   REMARKS
ERIE           SUNNY     56  35  45 N8        30.08F
MEADVILLE      SUNNY     65  29  25 W5        30.05F
FRANKLIN*      SUNNY     66  28  24 NW3       30.05F
NEW CASTLE     FAIR      68  33  27 VRB5      30.06F
BEAVER COUNTY  SUNNY     64  36  34 SE8       30.05F
BUTLER*        SUNNY     64  37  36 E6        30.06F
PITTSBURGH INT PTSUNNY   66  33  29 E9        30.04F
PITTSBURGH     SUNNY     65  33  30 VRB7      30.04F
INDIANA*       SUNNY     66  30  26 SE9       30.07F
LATROBE        PTSUNNY   66  36  32 NE10      30.05F
WASHINGTON CO* SUNNY     63  36  36 E10       30.06F
$$

PAZ004>006-010>012-017>019-024>028-033>037-041-042-045-046-049>053-232000-
CENTRAL PENNSYLVANIA

CITY           SKY/WX    TMP DP  RH WIND       PRES   REMARKS
BRADFORD       SUNNY     65  21  18 E5        30.05F
DUBOIS         SUNNY     65  27  23 VRB3      30.04F
CLEARFIELD     SUNNY     66  29  24 MISG      30.05F
JOHNSTOWN      SUNNY     61  28  28 E7        30.05F
ALTOONA        SUNNY     63  36  36 E6        30.07F
STATE COLLEGE  SUNNY     63  36  36 SE6       30.07F
WILLIAMSPORT   CLOUDY    67  36  31 CALM      30.05F
SELINSGROVE    SUNNY     65  43  44 N6        30.07F
FT INDIANTOWN  CLOUDY    61  38  42 SE6       30.08F
CAPITAL CITY   MOSUNNY   64  35  34 E7        30.09F
HARRISBURG     PTSUNNY   64  40  41 CALM      30.08F
YORK           PTSUNNY   63  38  39 CALM      30.08F
$$

PAZ038>040-043-044-047-048-054-055-060>062-067>071-232000-
EASTERN PENNSYLVANIA

CITY           SKY/WX    TMP DP  RH WIND       PRES   REMARKS
SCRANTON       SUNNY     67  28  23 NW7       30.04F
MOUNT POCONO   SUNNY     61  28  28 VRB5      30.06F
ALLENTOWN      CLOUDY    64  36  35 S5        30.08F
QUAKERTOWN*    PTCLDY    64  39  39 SW3       30.08F
READING        PTSUNNY   64  40  41 CALM      30.06F
LANCASTER      PTSUNNY   62  44  51 SE7       30.09F
COATESVILLE    MOCLDY    63  37  39 VRB6      30.10F
POTTSTOWN      CLOUDY    62  37  39 VRB5      30.09F
BLUE BELL      SUNNY     63  39  42 CALM      30.09F
DOYLESTOWN     SUNNY     64  35  34 N5        30.07F
WILLOW GROVE   NOT AVBL
NORTH PHILA    SUNNY     63  41  44 SE6       30.10F
PHILADELPHIA   PTSUNNY   63  40  42 S3        30.10F
$$



USA.gov is the U.S. government's official web portal to all federal, state and local government web resources and services.